Location: Mesa
(33.4220°N, 111.8220°W)
Time: 01:49:20
(UTC-07:00)

Hubble Space Telescope - Pass Details

Date: 26 November 2019
Orbit: 536 x 540 km, 28.5° (Epoch: 10 December)

Event Time Altitude Azimuth Distance (km) Brightness Sun altitude
Rises 19:25:34 0° 264° (W) 2,669 5.7 -25.8°
Reaches altitude 10° 19:28:13 10° 248° (WSW) 1,778 4.4 -26.3°
Maximum altitude 19:31:21 21° 198° (SSW) 1,222 2.8 -27.0°
Enters shadow 19:31:25 21° 197° (SSW) 1,223 2.8 -27.0°
